Regional Weather Roundup
Issued by NWS

Home | Current Version | Previous Version | Text Only | Print | Product List | Glossary Off
Versions: 1 2 3 4 5 6 7 8 9 10 11 12 13 14 15 16 17 18 19 20 21 22 23 24 25 26 27 28 29 30 31 32 33 34 35 36 37 38 39 40 41 42 43 44 45 46 47 48 49 50

000
ASUS43 KFSD 212310
RWRSD

WEATHER ROUNDUP FOR SOUTH DAKOTA
NATIONAL WEATHER SERVICE SIOUX FALLS SD
600 PM CDT MON AUG 21 2017

NOTE: "FAIR" INDICATES FEW OR NO CLOUDS BELOW 12,000 FEET WITH NO
SIGNIFICANT WEATHER AND/OR OBSTRUCTIONS TO VISIBILITY.


SDZ001>005-009-010-012>017-220000-
NORTHWEST AND NORTH CENTRAL SOUTH DAKOTA

CITY           SKY/WX    TMP DP  RH WIND       PRES   REMARKS
BUFFALO          N/A     78  37  22 N20G25    30.07R
FAITH            N/A     78  41  26 N22G29    30.08R
MOBRIDGE       SUNNY     78  51  38 N14G23    30.00R
$$

SDZ012>016-024>037-041>051-057-063-072>074-220000-
SOUTHWEST AND SOUTH CENTRAL SOUTH DAKOTA

CITY           SKY/WX    TMP DP  RH WIND       PRES   REMARKS
RAPID CTY ARPT SUNNY     79  39  23 N20G25    30.13R
PIERRE         SUNNY     80  49  33 NW22G28   29.99R
CUSTER         SUNNY     72  38  29 NE9G24    30.22S
ELLSWORTH AFB  SUNNY     80  38  23 NW17G26   30.12R
PHILIP         SUNNY     84  45  25 N14G26    30.05R
PINE RIDGE     SUNNY     81  47  30 N16G29    30.11R
SPEARFISH      FAIR      75  36  23 NE12G17   30.18S
WINNER         FAIR      78  67  68 N10       30.02R
$$

SDZ004>011-016>023-039-040-220000-
NORTHEAST SOUTH DAKOTA

CITY           SKY/WX    TMP DP  RH WIND       PRES   REMARKS
ABERDEEN       SUNNY     79  56  45 NW18G24   29.94R
WATERTOWN      MOSUNNY   73  62  68 NW13G23   29.94R
BROOKINGS      MOSUNNY   72  63  73 N7        29.96R
SISSETON         N/A     75  63  66 NW15      29.89R
$$

SDZ017-020-022-023-036>040-048>070-220000-
SOUTHEAST SOUTH DAKOTA

CITY           SKY/WX    TMP DP  RH WIND       PRES   REMARKS
SIOUX FALLS    CLOUDY    70  70 100 SW9       29.98R
HURON          SUNNY     79  65  62 NW12      29.95R
CHAMBERLAIN    MOSUNNY   79  69  71 W10       29.99R
MITCHELL       SUNNY     76  65  68 N6        29.98R
YANKTON        CLOUDY    66  64  94 CALM      30.01R
$$

ABBREVIATIONS USED IN REMARKS
   TC - TEMPERATURE IN CELSIUS
  WCI - WIND CHILL INDEX
   HX - HEAT INDEX
  VSB - VISIBILITY




USA.gov is the U.S. government's official web portal to all federal, state and local government web resources and services.